Theta_e
308 308 310 309 309 309 309 309 310 310 309 309 310 310 308 307 307 308 308 308 311 311 314 314 314 317 319 320 323 324 330 331 327 326 326 326 326 325 324 325 325 331 331 338 340
309 308 309 309 308 309 309 309 310 309 307 307 308 309 307 306 307 306 306 309 310 312 312 314 316 317 319 319 322 323 328 327 325 325 325 325 326 326 326 325 325 327 327 339 342
308 308 308 308 308 310 309 310 308 307 307 307 309 307 306 306 305 304 309 310 313 311 311 312 314 316 318 319 319 322 321 323 324 324 324 325 325 324 325 326 325 325 328 333 329
308 308 308 307 308 310 309 308 307 307 307 308 305 306 306 305 306 304 308 309 309 311 311 311 312 316 317 318 317 321 320 320 323 323 323 324 323 325 324 324 324 324 326 329 330
308 307 308 307 308 309 309 307 307 308 307 305 306 307 305 305 304 303 304 306 305 309 311 310 313 314 315 315 317 319 318 320 321 322 323 323 325 324 325 324 324 324 325 326 327
308 307 307 307 307 308 308 307 307 307 305 305 305 305 304 304 303 305 304 304 305 306 307 311 310 311 313 313 316 315 317 320 320 321 323 323 323 324 324 324 325 325 326 326 325
308 307 306 306 307 308 307 307 307 307 306 307 306 304 304 303 303 306 305 305 305 305 306 308 310 311 311 314 314 315 316 320 321 320 322 323 324 325 323 324 325 325 325 325 325
307 307 307 305 307 306 305 307 305 305 306 306 305 304 304 302 304 305 304 304 304 304 305 308 309 310 313 312 315 317 317 320 320 321 320 322 325 323 323 323 325 325 325 325 325
306 306 306 305 305 305 302 304 306 307 307 304 304 304 305 305 304 304 305 305 305 305 306 307 308 311 312 311 317 316 317 317 320 321 321 323 320 321 322 323 324 323 324 325 325
306 306 305 305 305 304 300 303 303 303 303 303 304 305 303 304 304 303 304 305 305 305 306 307 310 312 314 312 320 317 316 315 319 322 322 322 321 320 321 322 323 322 322 324 325
305 305 305 305 305 303 301 302 303 303 303 303 303 303 303 303 304 304 304 305 305 305 305 305 312 313 314 313 313 313 314 315 316 320 322 321 320 320 319 321 321 321 322 323 324
305 305 305 305 305 302 300 302 301 301 303 301 302 303 303 303 303 304 304 305 305 306 305 307 311 310 311 311 315 316 314 317 315 320 321 320 321 320 320 320 320 321 320 322 324
305 305 305 305 303 301 301 301 300 300 303 302 303 303 303 303 303 303 305 304 305 305 306 308 310 309 312 314 313 316 314 316 318 319 319 320 321 319 319 319 319 320 321 321 324
304 305 306 304 303 301 301 299 300 299 306 306 305 304 303 303 303 304 305 304 305 305 308 307 309 311 313 313 312 317 313 316 318 319 320 320 319 319 319 320 320 320 321 322 324
304 305 305 304 303 302 301 300 300 299 313 306 305 303 303 303 302 304 304 305 304 303 308 310 313 313 314 313 311 317 315 315 317 318 319 321 322 318 317 321 321 320 320 321 322
305 305 305 304 302 301 301 301 301 308 314 308 306 305 304 304 303 303 304 303 305 306 306 307 308 311 312 311 312 310 315 317 317 319 321 317 320 316 317 317 319 319 320 320 319
305 305 305 303 304 302 301 301 310 314 305 310 311 306 306 305 303 304 304 305 305 307 309 308 310 311 311 313 310 309 317 321 321 321 318 314 319 317 316 315 316 317 319 320 319
304 306 304 303 302 302 301 305 312 307 309 307 310 309 307 306 304 303 303 304 303 305 307 311 311 312 310 312 314 312 316 317 315 316 314 315 319 314 315 315 315 314 314 314 318
304 305 305 304 302 302 304 312 312 311 309 313 312 312 311 309 308 306 305 304 302 304 310 314 314 311 310 308 311 317 319 312 316 313 315 315 315 314 313 314 313 313 313 313 313
304 305 304 303 302 301 306 311 310 306 308 310 314 310 314 313 310 309 308 306 306 302 307 313 315 311 312 310 309 310 314 319 319 320 317 316 315 311 314 314 312 312 313 313 312
304 308 303 302 302 303 312 310 307 307 307 310 311 311 314 314 310 310 312 309 306 304 305 309 314 315 312 313 315 315 319 315 316 318 317 317 315 312 311 312 311 310 310 310 312
304 310 302 302 307 302 307 303 306 308 308 309 309 309 312 313 312 313 312 312 307 307 308 308 314 315 317 313 313 314 317 315 320 319 313 317 315 308 310 310 310 312 312 311 311
304 305 300 301 308 304 302 303 305 303 306 305 310 311 308 311 313 312 309 310 309 309 312 312 317 318 318 315 314 314 315 313 313 316 318 317 315 309 308 310 311 312 313 312 312
301 309 300 302 300 301 301 303 301 300 305 301 305 304 304 312 310 313 309 312 311 310 312 313 313 313 316 314 315 317 317 314 317 320 317 317 314 313 311 312 312 310 313 313 313
299 303 298 302 301 300 301 302 300 300 299 302 303 302 304 307 311 313 309 311 310 310 312 313 317 312 312 312 313 314 316 314 315 316 320 315 314 314 313 312 311 310 312 313 314
302 302 297 299 298 299 299 300 299 299 299 301 301 301 305 306 307 308 307 308 309 311 310 311 314 311 312 312 313 314 314 315 315 315 314 312 313 310 311 311 310 311 312 313 314
294 296 299 297 299 300 299 298 298 298 298 299 300 302 306 305 302 303 304 307 310 312 312 311 313 314 315 310 311 312 310 313 313 313 314 316 314 312 311 310 311 312 311 314 313
Wind_Speed
16 15 15 16 17 16 15 16 18 15 15 15 14 12 11 8 7 6 9 9 9 11 4 7 4 8 9 7 8 4 8 19 27 24 22 17 13 5 2 5 3 3 4 3 2
14 15 16 15 16 15 15 15 16 15 16 15 13 11 6 6 6 10 5 9 14 14 9 3 5 8 10 10 7 9 14 26 21 20 17 17 15 12 8 8 5 8 7 11 11
14 14 15 15 14 17 15 16 16 16 16 13 12 6 4 4 6 2 3 10 8 16 10 4 1 6 17 10 11 10 19 21 11 8 10 15 13 8 12 11 11 10 11 14 16
14 14 14 15 14 17 14 15 16 15 13 9 7 1 5 2 2 2 5 7 12 13 12 5 3 5 7 12 13 10 16 11 12 5 10 14 15 13 14 13 7 11 12 12 15
14 14 14 14 14 16 15 16 15 12 7 5 2 5 4 2 2 6 9 7 4 5 11 11 9 6 10 9 10 16 10 13 14 3 8 13 14 12 13 8 8 11 10 10 13
15 14 14 14 14 14 15 14 12 7 4 4 4 5 1 2 2 5 4 2 1 2 2 8 8 6 7 9 14 11 18 12 12 13 6 13 16 11 16 10 13 13 12 8 9
15 15 14 14 13 13 12 10 8 6 6 5 6 2 1 3 1 2 3 5 4 2 4 4 11 11 10 8 17 9 18 12 12 16 9 9 15 17 12 12 13 15 14 11 8
15 15 14 14 13 13 10 5 5 4 3 2 4 1 1 1 2 4 1 3 4 4 4 2 12 3 3 3 8 19 11 18 15 14 10 14 17 16 15 13 13 15 14 15 14
15 15 14 14 12 11 8 2 2 2 2 1 0 2 2 2 2 5 4 3 2 3 0 4 9 6 7 4 11 16 14 26 13 16 10 17 12 9 15 14 15 13 12 13 15
15 15 13 12 11 11 7 3 3 1 1 1 1 3 3 1 2 2 3 2 3 2 1 3 6 5 8 4 8 20 20 24 16 16 15 17 12 6 12 13 14 13 11 11 17
15 14 13 11 11 8 2 2 3 3 4 2 0 3 0 1 4 2 2 3 3 1 1 3 5 12 22 14 10 15 17 23 19 8 18 17 18 14 6 9 15 13 11 11 18
15 14 12 9 9 5 1 1 1 2 3 4 3 5 3 1 3 4 3 3 3 5 2 3 11 13 13 10 11 11 20 17 17 7 15 16 16 16 15 13 13 14 15 13 11
14 12 10 9 2 1 2 2 2 1 3 2 3 3 2 2 4 4 4 1 6 5 4 7 2 12 15 9 3 15 21 16 19 9 4 8 14 15 16 15 15 15 13 11 15
14 11 9 4 0 1 1 2 2 1 2 4 3 1 3 2 3 2 2 2 3 5 4 7 3 16 16 15 5 14 18 14 18 15 9 9 6 17 20 15 17 15 15 13 13
12 10 6 2 0 1 1 2 1 1 3 3 2 1 2 4 3 2 1 4 6 5 5 2 2 17 13 17 9 1 6 15 17 16 6 10 6 6 6 20 17 16 16 16 14
12 7 5 1 2 0 2 1 1 2 2 2 3 3 3 5 2 0 2 2 1 3 3 4 2 4 6 12 11 5 9 10 9 8 6 11 13 7 8 14 19 18 17 16 16
10 4 5 2 2 2 2 1 2 2 1 1 4 4 4 3 4 4 3 4 3 3 1 3 2 5 11 5 4 4 11 5 6 6 6 4 9 9 7 5 10 15 19 18 17
2 6 3 1 2 3 0 2 1 2 3 2 3 5 5 7 4 6 5 3 7 4 1 4 4 9 6 2 4 4 6 4 8 9 9 5 8 7 7 10 11 7 5 5 16
6 5 2 1 3 1 2 2 3 2 2 2 4 3 5 5 3 6 6 4 5 13 4 4 2 8 4 4 8 1 8 1 4 3 5 6 5 12 8 7 4 8 9 7 8
3 4 3 3 3 2 2 3 4 4 2 2 3 3 3 5 6 7 9 5 4 13 4 2 3 8 9 6 3 4 8 4 1 6 5 4 3 1 5 5 2 1 6 8 8
3 2 2 2 1 0 2 4 7 7 3 3 4 5 5 1 6 6 5 3 8 11 10 1 3 4 7 4 7 4 3 3 2 3 1 5 4 3 6 6 6 5 5 5 6
3 1 2 1 1 1 5 9 8 9 4 5 2 2 4 3 2 3 6 4 11 11 7 6 1 2 5 2 4 3 6 3 2 3 2 3 5 5 4 5 7 7 3 2 3
2 2 1 1 3 4 8 6 4 14 11 9 7 6 6 3 4 3 1 6 10 8 4 4 2 5 7 3 1 4 4 3 4 1 2 1 5 4 4 3 7 7 3 1 5
2 1 2 2 2 2 4 5 11 11 3 10 6 8 15 6 4 5 6 4 7 5 2 5 1 3 2 5 7 4 10 10 4 3 5 4 2 5 8 3 6 7 2 5 7
3 2 2 2 2 4 2 7 9 11 7 11 4 13 7 5 9 7 7 3 7 5 3 2 1 2 4 4 3 5 10 11 6 4 5 5 10 14 8 5 8 6 2 6 9
2 3 1 2 1 2 6 8 10 10 3 5 8 11 1 2 2 5 7 3 1 5 1 3 1 1 2 3 3 3 6 12 12 10 11 7 14 6 10 10 6 5 4 9 10
3 2 1 1 0 1 3 5 7 9 1 4 9 7 3 2 11 12 6 10 5 2 1 0 0 1 2 3 4 2 2 8 5 5 9 10 10 4 6 2 4 6 6 9 12
Wind_Direction
346 342 345 341 339 333 330 326 329 333 327 322 316 309 278 260 271 251 242 252 248 254 270 313 245 215 199 211 207 197 218 218 214 216 200 176 184 156 130 151 94 78 66 16 128
347 342 340 343 336 332 329 324 326 324 317 317 310 304 257 237 258 259 265 294 261 246 240 243 217 227 200 200 207 197 218 220 219 216 224 207 224 178 192 175 142 115 111 97 113
341 343 335 341 333 336 328 330 328 320 314 312 313 284 189 196 250 198 63 359 279 225 197 192 339 258 205 191 204 201 226 226 238 241 228 224 208 195 218 215 201 175 132 119 98
339 339 338 337 330 333 333 334 325 319 318 312 315 149 169 168 284 19 304 349 25 206 190 223 220 225 209 197 199 218 227 256 193 204 214 214 224 212 225 223 211 194 141 136 118
335 337 335 335 331 333 339 337 333 328 328 324 100 145 138 178 312 316 293 280 357 102 193 206 219 214 190 223 198 219 222 213 232 181 212 225 217 216 219 215 156 155 158 145 129
333 335 334 332 331 333 343 345 341 350 58 87 136 155 174 191 334 348 62 89 186 125 176 189 218 208 220 222 228 213 223 221 214 201 191 201 223 219 229 174 171 175 168 163 136
332 332 332 330 332 337 344 357 19 50 87 83 126 106 194 58 316 326 31 77 34 296 215 185 224 190 185 191 234 217 206 228 206 202 196 190 217 217 179 191 195 201 194 191 162
330 331 330 330 334 332 339 358 18 73 45 44 142 316 71 267 245 244 258 49 51 7 331 264 178 257 218 304 209 204 212 211 200 194 192 196 221 210 226 214 211 205 221 213 205
329 329 331 333 330 324 328 270 18 17 65 105 129 282 140 145 163 244 257 306 302 7 104 181 154 222 165 130 199 197 199 203 189 196 176 199 219 186 211 215 224 225 213 219 198
330 329 333 336 328 320 320 241 253 248 239 73 160 246 190 158 174 202 249 238 291 306 145 243 194 202 206 161 190 181 205 197 196 192 203 198 200 180 203 212 222 224 228 229 210
329 327 331 335 321 334 353 247 216 209 230 274 317 286 207 349 169 180 172 227 242 235 240 321 228 200 195 180 243 206 187 198 197 167 201 204 214 220 180 224 235 234 232 238 228
328 324 328 326 311 331 0 215 53 12 260 216 241 271 264 329 241 153 151 250 246 276 147 229 226 221 210 177 212 272 188 187 196 174 209 208 224 225 241 238 242 238 235 234 231
327 323 325 315 309 7 78 133 130 132 273 192 212 247 237 286 260 177 177 251 277 278 256 265 126 186 201 166 150 224 193 178 178 156 168 213 236 233 231 241 242 245 247 238 222
322 317 316 314 261 25 118 139 156 190 295 164 202 192 235 255 256 164 173 258 250 313 290 253 268 179 174 181 139 200 201 172 164 175 194 213 241 221 226 226 227 236 225 223 223
317 309 297 245 77 343 174 142 186 229 287 136 192 346 242 228 340 144 173 188 269 282 273 77 154 171 165 190 158 200 215 186 174 195 179 188 241 215 225 216 221 227 227 223 221
311 284 241 252 57 123 170 205 247 214 307 195 200 200 211 206 208 345 194 191 300 312 266 335 115 191 152 133 154 321 186 142 165 166 219 205 216 232 201 215 217 223 222 226 229
306 215 202 154 27 114 131 231 256 293 94 213 223 184 204 227 212 194 184 187 189 201 190 156 123 98 130 109 116 54 181 148 171 198 212 232 208 247 216 228 242 229 225 221 224
183 157 179 125 151 118 251 258 249 238 237 222 210 182 212 177 218 187 166 250 214 190 214 174 179 173 157 147 143 213 225 207 178 188 177 145 224 237 258 255 233 251 228 251 236
160 156 132 130 146 51 297 284 29 271 253 277 290 241 210 191 228 169 211 241 216 191 212 157 117 118 114 124 138 179 179 344 102 19 166 173 242 261 257 235 239 231 223 242 222
164 148 63 133 145 8 279 324 315 245 334 277 277 231 276 148 193 189 186 202 223 196 173 41 125 178 129 96 121 246 328 184 240 159 175 172 218 143 105 120 134 237 257 249 232
170 185 49 101 101 308 347 314 297 311 257 246 299 291 265 267 200 182 178 178 212 178 190 292 253 119 160 180 174 176 191 229 89 344 169 146 151 100 86 47 10 340 310 267 246
153 282 83 44 331 300 334 334 317 340 0 282 255 274 270 297 254 234 200 278 175 159 181 193 93 141 68 94 141 160 193 219 246 200 61 323 106 147 109 52 14 7 350 325 234
92 97 93 282 33 350 327 339 317 350 4 10 329 8 342 272 330 4 270 212 171 175 165 167 194 128 135 145 189 196 181 124 95 21 192 318 122 160 188 301 349 344 21 123 153
136 119 111 89 51 19 340 346 354 350 18 353 54 23 356 346 347 351 354 28 178 140 304 309 279 2 69 64 126 199 192 185 164 174 168 224 285 191 199 302 16 1 301 159 165
24 87 47 26 37 27 278 348 348 3 355 9 59 18 39 330 357 7 6 25 44 320 327 329 48 51 37 81 130 159 192 179 188 207 204 225 229 252 287 321 10 351 253 183 175
120 156 160 122 300 341 358 7 339 343 312 12 357 339 266 22 77 304 334 9 357 57 50 268 96 169 80 60 121 147 166 200 216 227 247 257 272 270 280 284 255 323 225 208 195
110 93 226 80 150 275 10 342 324 337 320 328 326 309 314 306 302 281 267 275 263 176 179 189 254 331 82 354 1 340 252 194 193 229 232 227 253 222 264 269 241 292 223 218 209